Probability
0 0 0 0 0 0 0 0 0 0 0 0 0 0 0 0 0 0 0 0 0 0 0 0 0 0 0 0 0 0 0 0 0 0 0 0 0 0 0 0 0 0 0
0 0 0 0 0 0 0 0 0 0 0 0 0 0 0 0 0 0 0 0 0 0 0 0 0 0 0 0 0 0 0 0 0 0 0 0 0 0 0 0 0 0 0
0 0 0 0 0 0 0 0 0 0 0 0 0 0 0 0 0 0 0 0 0 0 0 0 0 0 0 0 0 0 0 0 0 0 0 0 0 0 0 0 0 0 0
0 0 0 0 0 0 0 0 0 0 0 0 0 0 0 0 0 0 0 0 0 0 0 0 0 0 0 0 0 0 0 0 0 0 0 0 0 0 0 0 0 0 0
0 0 0 0 0 0 0 0 0 0 0 0 0 0 0 0 0 0 0 0 0 0 0 0 0 0 0 0 0 0 0 0 0 0 0 0 0 0 0 0 0 0 0
0 0 0 0 0 0 0 0 0 0 0 0 0 0 0 0 0 0 0 0 0 0 0 0 0 0 0 0 0 0 0 0 0 0 0 0 0 0 0 0 0 0 0
0 0 0 0 0 0 0 0 0 0 0 0 0 0 0 0 0 0 0 0 0 0 0 0 0 0 0 0 0 0 0 0 0 0 0 0 0 0 0 0 0 0 0
0 0 0 0 0 0 0 0 0 0 0 0 0 0 0 0 0 0 0 0 0 0 0 0 0 0 0 0 0 0 0 0 0 0 0 0 0 0 0 0 0 0 0
0 0 0 0 0 0 0 0 0 0 0 0 0 0 0 0 0 0 0 0 0 0 0 0 0 0 0 0 0 0 0 0 0 0 0 0 0 0 0 0 0 0 0
0 0 0 0 0 0 0 0 0 0 0 0 0 0 0 0 0 0 0 0 0 0 0 0 0 0 0 0 0 0 0 0 0 0 0 0 0 0 0 0 0 0 0
0 0 0 0 0 0 0 0 0 0 0 0 0 0 0 0 0 0 0 0 0 0 0 0 0 0 0 0 0 0 0 0 0 0 0 0 0 0 0 0 0 0 0
0 0 0 0 0 0 0 0 0 0 0 0 0 0 0 0 0 0 0 0 0 0 0 0 0 0 0 0 0 0 0 0 0 0 0 0 0 0 0 0 0 0 0
0 0 0 0 0 0 0 0 0 0 0 0 0 0 0 0 0 0 0 0 0 0 0 0 0 0 0 0 0 0 0 0 0 0 0 0 0 0 0 0 0 0 0
0 0 0 0 0 0 0 0 0 0 0 0 0 0 0 0 0 0 0 0 0 0 0 0 0 0 0 0 0 0 0 0 0 0 0 0 0 0 0 0 0 0 0
0 0 0 0 0 0 0 0 0 0 0 0 0 0 0 0 0 0 0 0 0 0 0 0 0 0 0 0 0 0 0 0 0 0 0 0 0 0 0 0 0 0 0
0 0 0 0 0 0 0 0 0 0 0 0 0 0 0 0 0 0 0 0 0 0 0 0 0 0 0 0 0 0 0 0 0 0 0 0 0 0 0 0 0 0 0
0 0 0 0 0 0 0 0 0 0 0 0 0 0 0 0 0 0 0 0 0 0 0 0 0 0 0 0 0 0 0 0 0 0 0 0 0 0 0 0 0 0 0
0 0 0 0 0 0 0 0 0 0 0 0 0 0 0 0 0 0 0 0 0 0 0 0 0 0 0 0 0 0 0 0 0 0 0 0 0 0 0 0 0 0 0
0 0 0 0 0 0 0 0 0 0 0 0 0 0 0 0 0 0 0 0 0 0 0 0 0 0 0 0 0 0 0 0 0 0 0 0 0 0 0 0 0 0 0
0 0 0 0 0 0 0 0 0 0 0 0 0 0 0 0 0 0 0 0 0 0 0 0 0 0 0 0 0 0 0 0 0 0 0 0 0 0 0 0 0 0 0
0 0 0 0 0 0 0 0 0 0 0 0 0 0 0 0 0 0 0 0 0 0 0 0 0 0 0 0 0 0 0 0 0 0 0 0 0 0 0 0 0 0 0
0 0 0 0 0 0 0 0 0 0 0 0 0 0 0 0 0 0 0 0 0 0 0 0 0 0 0 0 0 0 0 0 0 0 0 0 0 0 0 0 0 0 0
0 0 0 0 0 0 0 0 0 0 0 0 0 0 0 0 0 0 0 0 0 0 0 0 0 0 0 0 0 0 0 0 0 0 0 0 0 0 0 0 0 0 0
0 0 0 0 0 0 0 0 0 0 0 0 0 0 0 0 0 0 0 0 0 0 0 0 0 0 0 0 0 0 0 0 0 0 0 0 0 0 0 0 0 0 0
0 0 0 0 0 0 0 0 0 0 0 0 0 0 0 0 0 0 0 0 0 0 0 0 0 0 0 0 0 0 0 0 0 0 0 0 0 0 0 0 0 0 0
0 0 0 0 0 0 0 0 0 0 0 0 0 0 0 0 0 0 0 0 0 0 0 0 0 0 0 0 0 0 0 0 0 0 0 0 0 0 0 0 0 0 0
Height
5632 5630 5629 5628 5626 5625 5624 5624 5623 5623 5623 5624 5624 5625 5626 5627 5628 5630 5631 5633 5634 5636 5637 5639 5640 5642 5644 5646 5647 5648 5649 5650 5653 5658 5659 5661 5662 5664 5667 5668 5670 5672 5674
5628 5626 5624 5622 5621 5619 5618 5617 5617 5616 5616 5616 5616 5616 5617 5618 5618 5619 5621 5622 5623 5624 5625 5626 5627 5628 5629 5631 5632 5633 5634 5634 5636 5640 5643 5644 5646 5648 5650 5652 5654 5656 5659
5624 5621 5619 5617 5615 5613 5612 5611 5610 5609 5608 5608 5607 5608 5608 5608 5608 5608 5609 5610 5610 5611 5612 5612 5613 5613 5614 5615 5616 5617 5617 5618 5619 5621 5624 5627 5629 5631 5633 5635 5638 5640 5642
5619 5616 5614 5611 5609 5607 5606 5604 5603 5601 5600 5599 5598 5598 5597 5597 5597 5597 5597 5597 5597 5597 5597 5597 5597 5597 5598 5598 5599 5599 5600 5600 5601 5602 5604 5607 5609 5611 5613 5617 5620 5623 5625
5614 5611 5608 5605 5603 5601 5599 5597 5595 5593 5592 5591 5589 5588 5587 5586 5585 5584 5584 5583 5583 5582 5581 5581 5581 5580 5580 5580 5580 5581 5581 5581 5582 5583 5585 5587 5589 5591 5594 5597 5600 5604 5607
5608 5605 5602 5599 5596 5594 5591 5589 5587 5585 5583 5581 5579 5578 5576 5574 5573 5571 5570 5569 5567 5566 5565 5564 5563 5562 5562 5561 5561 5561 5562 5561 5562 5563 5565 5566 5569 5571 5574 5576 5580 5584 5588
5603 5599 5596 5592 5589 5586 5583 5580 5578 5575 5573 5570 5568 5566 5564 5561 5559 5557 5555 5553 5551 5549 5547 5546 5544 5543 5542 5541 5541 5541 5541 5540 5541 5542 5544 5546 5549 5552 5554 5556 5559 5563 5569
5597 5593 5589 5585 5581 5578 5575 5571 5569 5566 5562 5560 5557 5554 5551 5548 5545 5543 5540 5538 5535 5532 5529 5527 5526 5524 5522 5520 5520 5520 5520 5520 5520 5521 5523 5526 5528 5530 5532 5535 5538 5542 5547
5590 5586 5582 5578 5574 5570 5566 5562 5558 5555 5551 5547 5544 5540 5537 5534 5530 5527 5524 5521 5518 5515 5512 5509 5507 5505 5502 5500 5499 5499 5500 5500 5500 5501 5503 5505 5507 5509 5511 5513 5517 5520 5526
5583 5578 5574 5570 5565 5561 5557 5552 5548 5543 5539 5535 5531 5527 5523 5519 5515 5511 5508 5505 5502 5499 5496 5492 5489 5486 5483 5480 5479 5479 5480 5480 5481 5482 5483 5484 5486 5488 5490 5492 5496 5500 5505
5575 5570 5566 5561 5556 5551 5547 5542 5537 5532 5528 5523 5519 5514 5509 5505 5501 5496 5491 5487 5484 5481 5478 5474 5471 5467 5464 5462 5460 5459 5459 5460 5460 5462 5463 5464 5465 5467 5470 5473 5476 5480 5485
5567 5562 5557 5552 5547 5541 5536 5531 5526 5521 5516 5511 5506 5501 5496 5491 5486 5480 5475 5470 5466 5462 5459 5456 5452 5449 5446 5443 5441 5440 5439 5439 5441 5442 5443 5445 5446 5448 5450 5453 5457 5461 5465
5558 5553 5548 5542 5537 5531 5525 5520 5514 5509 5504 5499 5494 5488 5483 5477 5471 5465 5459 5454 5449 5444 5441 5437 5434 5430 5427 5424 5422 5421 5420 5420 5421 5423 5424 5426 5428 5430 5432 5435 5438 5442 5446
5549 5544 5538 5532 5526 5520 5514 5508 5503 5497 5492 5486 5481 5475 5469 5463 5457 5450 5444 5439 5433 5428 5424 5420 5416 5412 5409 5406 5404 5403 5402 5402 5402 5404 5406 5407 5409 5411 5414 5416 5420 5424 5429
5539 5534 5528 5522 5515 5509 5503 5496 5491 5485 5479 5473 5468 5462 5456 5450 5442 5435 5429 5424 5418 5413 5408 5404 5400 5396 5393 5390 5388 5386 5385 5384 5384 5385 5387 5388 5390 5393 5395 5398 5402 5407 5412
5529 5523 5517 5511 5505 5498 5492 5486 5478 5473 5466 5460 5454 5448 5442 5435 5428 5422 5415 5409 5403 5398 5393 5389 5385 5381 5377 5374 5372 5370 5368 5367 5366 5367 5368 5369 5371 5374 5377 5380 5384 5390 5395
5519 5513 5506 5500 5494 5487 5481 5475 5469 5462 5454 5448 5442 5435 5429 5422 5415 5409 5402 5396 5390 5384 5379 5374 5370 5366 5362 5359 5357 5354 5352 5351 5349 5349 5350 5351 5353 5356 5359 5363 5368 5373 5379
5508 5502 5495 5489 5483 5477 5470 5464 5458 5452 5446 5438 5431 5424 5417 5410 5403 5396 5389 5383 5377 5371 5366 5361 5356 5352 5349 5345 5343 5340 5338 5336 5334 5334 5334 5336 5338 5341 5344 5348 5353 5359 5365
5498 5491 5485 5478 5472 5466 5460 5454 5447 5441 5434 5428 5421 5414 5406 5399 5391 5384 5377 5371 5365 5359 5353 5348 5343 5339 5336 5333 5330 5327 5325 5323 5322 5322 5322 5323 5325 5327 5331 5336 5341 5347 5353
5487 5481 5475 5468 5462 5456 5450 5443 5437 5430 5424 5417 5410 5403 5396 5389 5381 5373 5366 5359 5353 5347 5341 5336 5332 5328 5324 5321 5318 5316 5314 5313 5312 5312 5312 5313 5314 5317 5320 5325 5330 5337 5343
5478 5471 5465 5459 5453 5446 5440 5433 5427 5420 5413 5406 5399 5392 5385 5378 5370 5363 5355 5348 5342 5336 5331 5326 5322 5318 5314 5311 5308 5307 5305 5304 5303 5303 5304 5304 5305 5308 5311 5316 5321 5327 5334
5468 5462 5455 5449 5443 5437 5430 5424 5417 5410 5403 5396 5389 5382 5374 5367 5360 5353 5346 5339 5332 5327 5322 5317 5313 5309 5306 5303 5300 5298 5297 5296 5296 5296 5296 5297 5298 5300 5303 5308 5313 5319 5325
5459 5452 5446 5440 5433 5427 5420 5414 5407 5400 5393 5386 5379 5372 5365 5358 5351 5344 5337 5331 5325 5319 5314 5310 5306 5303 5299 5296 5294 5292 5290 5290 5290 5289 5290 5291 5292 5294 5297 5302 5307 5312 5318
5449 5443 5437 5430 5424 5418 5411 5404 5397 5391 5384 5377 5370 5363 5356 5349 5343 5336 5330 5324 5318 5313 5308 5304 5300 5297 5293 5290 5288 5286 5285 5284 5284 5285 5285 5287 5288 5290 5293 5297 5302 5307 5313
5440 5434 5428 5421 5415 5408 5401 5395 5388 5381 5375 5368 5361 5354 5348 5341 5335 5329 5324 5318 5313 5308 5303 5299 5295 5291 5288 5286 5284 5282 5281 5280 5280 5280 5281 5283 5284 5287 5289 5293 5298 5303 5308
5431 5425 5418 5412 5405 5399 5392 5386 5379 5373 5366 5360 5353 5347 5341 5335 5329 5323 5318 5312 5308 5303 5298 5294 5290 5287 5285 5282 5280 5279 5278 5277 5277 5277 5278 5280 5282 5284 5287 5290 5294 5299 5304
Wind_Speed
19 20 21 22 23 23 24 25 25 26 28 30 32 33 35 36 37 39 41 43 45 46 47 49 51 52 55 54 55 55 56 57 56 54 55 54 54 53 53 53 52 52 50
18 18 19 20 22 23 24 25 26 27 28 29 31 32 34 36 37 39 41 43 44 46 48 50 51 52 54 55 55 55 56 57 57 57 57 57 58 57 56 55 54 53 53
19 20 20 21 22 23 24 25 26 27 28 30 32 34 35 37 38 40 42 44 45 47 49 51 52 53 55 57 57 57 57 58 59 60 60 60 60 60 59 57 57 56 55
21 22 22 22 23 23 25 26 27 27 29 30 32 34 36 37 39 41 43 45 46 48 50 51 53 54 55 57 58 59 60 60 61 61 61 61 61 61 61 61 60 58 57
23 23 23 24 25 25 26 27 28 29 30 32 33 35 37 38 40 41 43 45 46 48 51 53 55 56 57 58 59 60 61 62 63 63 62 62 62 62 63 62 62 60 58
25 25 26 26 27 27 28 28 30 31 32 33 35 37 38 40 41 43 44 46 47 49 51 53 54 56 58 59 60 61 63 63 63 62 62 62 62 62 63 63 62 61 59
26 27 27 27 28 29 29 30 32 33 35 35 37 38 40 42 43 44 46 47 49 50 51 53 55 56 58 59 60 61 61 61 61 62 61 61 62 62 62 63 63 63 62
29 29 29 29 30 30 31 32 33 35 36 38 39 40 41 43 45 46 47 48 50 51 53 54 55 56 58 59 59 59 60 60 60 60 61 60 60 62 62 62 61 62 62
31 31 31 31 32 32 33 34 35 37 38 39 41 42 43 44 46 47 48 49 50 51 52 53 55 55 56 57 57 58 58 58 59 59 59 59 59 60 62 62 62 62 62
33 33 34 34 34 34 35 36 37 37 38 39 40 42 43 44 46 47 48 49 50 51 51 52 53 54 55 56 56 56 56 56 57 57 58 59 59 59 60 61 61 60 60
34 35 35 36 37 37 38 38 38 39 39 40 42 43 44 45 47 48 49 50 51 51 52 52 53 54 54 56 56 56 56 56 56 56 56 57 57 58 58 59 60 59 59
36 37 37 38 38 39 39 40 40 40 41 41 42 43 45 46 47 48 49 50 51 52 52 52 53 53 54 55 55 55 55 55 54 54 54 55 56 56 57 57 58 58 57
38 39 39 40 40 41 41 42 42 42 42 43 44 44 45 46 47 48 49 50 51 51 50 51 51 52 53 53 54 54 54 53 53 53 53 53 54 54 54 54 54 55 54
41 41 41 42 42 43 43 43 42 42 43 44 44 44 45 47 48 48 49 49 49 48 48 48 49 50 50 50 51 52 52 52 52 52 51 51 52 52 52 52 53 53 52
42 42 43 44 44 44 44 43 43 43 44 44 44 45 46 46 46 47 47 47 47 46 46 47 47 46 46 46 47 48 49 50 51 51 51 51 51 52 51 52 52 52 51
43 44 45 45 45 44 43 43 44 45 45 46 46 46 46 46 46 46 46 46 45 44 44 44 43 43 43 43 43 44 46 47 48 49 50 50 50 50 50 50 51 50 49
44 45 45 45 44 44 43 43 43 44 45 45 45 46 47 47 46 46 45 44 44 44 43 43 42 42 41 40 41 41 42 43 44 44 45 45 45 45 46 47 48 48 48
44 45 45 44 44 43 43 44 44 43 43 44 45 45 46 46 46 46 44 44 44 43 42 41 41 40 39 39 38 38 38 38 37 38 38 39 40 41 41 42 42 43 43
44 45 44 43 43 43 43 43 43 43 43 43 43 44 45 45 46 45 44 43 42 41 40 40 39 38 37 37 36 35 34 33 32 32 32 33 34 35 36 38 38 39 40
44 44 43 43 42 42 43 43 43 43 43 43 43 43 44 44 44 43 43 42 41 39 38 36 35 35 34 33 32 30 28 28 28 28 28 28 29 30 32 34 35 36 36
44 44 43 42 42 43 43 42 43 43 43 43 43 43 43 43 43 42 41 40 39 37 35 33 31 30 29 29 27 25 24 23 23 24 24 24 25 26 28 31 33 33 34
44 44 43 42 43 43 43 43 43 43 43 42 42 43 42 42 42 41 39 37 36 33 31 30 28 26 25 24 23 23 22 21 21 20 20 21 21 22 24 27 30 31 32
43 43 43 43 43 43 43 43 43 42 42 42 42 41 41 40 39 38 36 34 32 30 28 27 25 24 23 22 20 20 19 18 18 17 17 17 17 19 21 23 26 27 29
42 42 42 42 43 43 43 43 42 42 41 41 40 40 39 38 36 34 33 31 29 27 26 25 24 22 21 20 19 17 16 16 16 15 15 15 16 17 18 21 23 25 26
42 42 42 43 43 43 42 42 41 41 40 40 39 38 36 35 33 32 31 30 28 26 25 24 22 20 19 17 15 14 14 13 13 14 14 14 14 16 17 19 22 25 25
42 42 43 43 43 42 41 41 40 39 39 38 37 35 33 32 31 30 29 28 26 25 24 23 21 19 17 15 13 12 12 11 11 11 12 12 13 14 16 18 20 23 25
Wind_Direction
294 291 287 284 283 280 277 274 274 270 266 264 264 263 261 261 261 261 259 258 258 258 258 258 259 259 259 261 261 262 264 265 265 263 262 261 259 260 262 264 263 261 261
302 298 294 291 288 285 281 279 279 276 273 270 269 267 265 264 263 263 263 261 261 261 260 260 261 261 261 262 263 265 266 267 266 264 263 262 260 261 261 262 262 262 261
307 304 299 295 291 287 285 284 282 280 277 274 272 270 268 267 266 265 265 264 264 264 264 263 263 263 262 262 263 264 265 266 266 265 264 262 261 261 261 261 261 261 262
309 307 303 299 296 292 289 287 285 283 280 277 276 274 272 271 270 269 268 268 267 266 266 265 265 265 264 264 264 265 265 265 265 265 265 263 262 261 260 260 261 261 261
312 310 306 302 300 297 293 290 287 285 283 281 279 278 276 274 273 272 271 271 271 270 268 267 267 266 266 266 265 264 264 264 265 266 266 264 263 261 260 260 260 260 260
314 311 307 303 300 298 295 291 290 288 286 284 282 281 280 279 278 276 275 274 273 272 271 270 269 269 268 267 266 266 266 266 266 266 265 264 263 262 261 260 260 260 259
316 313 310 306 302 300 298 295 292 291 290 289 287 285 283 282 281 280 279 277 276 275 274 272 271 271 269 268 267 268 267 267 266 265 264 264 263 262 261 260 259 259 260
315 312 310 308 305 303 301 298 296 294 293 291 289 288 286 285 283 282 281 280 279 278 277 275 274 273 272 271 269 268 267 265 264 264 264 263 262 261 260 259 258 258 258
315 313 311 309 307 305 304 302 300 297 295 292 291 289 288 287 286 285 284 283 281 280 279 278 277 276 274 273 272 270 267 266 265 264 263 263 262 262 261 260 258 257 257
315 313 312 310 308 307 306 304 303 301 300 298 296 294 292 290 289 288 287 285 282 280 279 279 279 278 276 275 273 271 269 267 265 264 263 263 263 262 261 259 258 257 256
314 313 312 311 309 308 307 306 305 303 302 301 299 298 296 294 293 292 290 287 285 283 282 281 281 280 278 276 275 273 270 269 267 265 263 262 262 261 260 259 258 255 255
313 313 313 312 311 309 308 307 305 304 303 302 301 300 299 298 297 295 294 293 290 287 285 283 282 281 279 277 276 274 272 270 268 266 264 262 261 261 260 259 257 255 255
312 312 312 312 311 310 309 307 306 304 304 303 303 302 302 301 300 299 297 296 293 291 288 286 284 282 280 278 276 274 272 269 267 265 264 262 260 259 259 257 256 254 253
311 311 312 312 311 311 309 308 307 306 306 305 305 304 304 303 302 301 299 297 295 292 290 288 287 285 283 280 277 273 271 269 267 265 264 262 260 257 256 255 253 251 251
311 311 311 312 311 311 310 309 308 308 308 308 307 307 307 306 305 304 302 299 297 294 292 290 288 286 283 281 279 275 272 271 268 266 264 263 260 257 255 254 251 249 249
311 311 312 312 311 310 310 309 309 310 310 310 309 309 310 310 309 307 305 303 300 298 296 294 290 288 285 282 280 277 275 273 271 268 266 263 261 258 254 252 249 246 244
311 312 312 312 311 311 310 310 310 310 311 311 311 311 312 312 311 310 308 305 303 301 299 296 293 290 287 285 283 280 278 276 274 270 266 262 259 255 252 250 247 243 240
312 313 313 312 312 312 312 312 312 312 312 312 313 313 313 313 313 312 310 307 305 304 301 298 296 292 289 287 286 284 281 278 274 270 266 262 257 253 249 245 242 240 238
314 314 314 313 313 313 313 314 314 314 314 314 315 315 315 316 316 314 313 311 309 307 304 301 298 295 290 288 288 286 282 277 273 269 266 262 257 251 245 241 238 236 234
314 315 315 314 314 314 314 314 315 316 315 315 316 316 316 317 317 316 314 313 312 310 307 304 301 298 295 291 288 285 281 277 273 270 266 261 255 248 242 236 233 231 230
315 315 315 315 315 316 315 315 316 316 316 316 316 317 317 318 319 318 317 315 314 312 310 308 305 302 300 294 288 284 281 278 274 269 265 261 254 247 240 234 230 227 227
315 316 316 316 316 316 316 316 317 317 317 317 317 318 318 319 320 320 320 318 317 315 313 312 309 307 305 301 293 284 280 277 274 270 265 259 251 243 237 232 227 225 224
315 316 316 316 317 317 317 317 317 318 319 319 318 319 319 320 321 322 322 322 321 320 318 317 314 310 307 303 298 290 281 276 274 269 262 252 243 237 232 227 222 219 220
315 316 316 317 317 317 317 318 318 319 320 320 320 320 321 321 322 323 324 324 324 323 323 321 319 314 309 304 299 293 283 275 271 266 255 245 240 234 227 221 217 214 214
315 316 316 317 317 317 318 318 319 319 320 321 321 322 323 323 324 325 325 326 325 325 324 323 322 318 313 308 302 297 288 277 269 261 251 243 237 231 224 219 215 212 211
315 316 317 317 318 318 318 319 319 320 321 322 322 323 324 325 326 326 327 327 328 327 326 325 322 319 315 312 307 301 294 282 269 258 247 240 233 226 222 218 215 212 211